This demonstration page uses our WeatherBlox Daily Observations layout. Learn more.

Left ArrowRight Arrow

34.16533, -84.80231

Hourly Observations for February 11, 2015

Temp ( °F °C ) Dew Point ( °F °C ) Humidity (%) Winds ( mph kmh ) Pressure ( in mb ) Visibility ( mi km ) Precip ( " mm )
12:53 am 00:53 Clear 33 0.6 28 -2.2 82 82 Calm 30.01 1016 10 16 0.00 0.00
1:53 am 01:53 Clear 31 -0.6 27 -2.8 85 85 Calm 30.01 1016 10 16 0.00 0.00
2:53 am 02:53 Clear 30 -1.1 26 -3.3 85 85 Calm 30.02 1017 9 14 0.00 0.00
3:53 am 03:53 Clear 31 -0.6 27 -2.8 85 85 NNW 3 6 30.02 1017 9 14 0.00 0.00
4:53 am 04:53 Clear with Mist and Fog 26 -3.3 24 -4.4 92 92 Calm 30.03 1017 6 10 0.00 0.00
5:53 am 05:53 Clear 28 -2.2 25 -3.9 88 88 Calm 30.05 1018 7 11 0.00 0.00
6:53 am 06:53 Clear with Mist and Fog 28 -2.2 25 -3.9 88 88 Calm 30.08 1019 6 10 0.00 0.00
7:53 am 07:53 Sunny with Mist and Fog 28 -2.2 25 -3.9 88 88 Calm 30.10 1019 4 6 0.00 0.00
8:53 am 08:53 Sunny with Mist and Fog 32 0 28 -2.2 85 85 Calm 30.10 1019 6 10 0.00 0.00
9:53 am 09:53 Sunny 36 2.2 29 -1.7 76 76 NNE 3 6 30.11 1020 7 11 0.00 0.00
10:53 am 10:53 Sunny 41 5 31 -0.6 67 67 Calm 30.09 1019 9 14 0.00 0.00
11:53 am 11:53 Sunny 48 8.9 33 0.6 56 56 N 6 9 30.07 1018 10 16 0.00 0.00
12:53 pm 12:53 Sunny 51 10.6 34 1.1 52 52 VRB 3 6 30.06 1018 10 16 0.00 0.00
1:53 pm 13:53 Sunny 54 12.2 36 2.2 51 51 Calm 30.02 1017 10 16 0.00 0.00
2:53 pm 14:53 Sunny 57 13.9 33 0.6 41 41 VRB 3 6 30.01 1016 10 16 0.00 0.00
3:53 pm 15:53 Sunny 59 15 33 0.6 38 38 VRB 5 7 30.01 1016 10 16 0.00 0.00
4:53 pm 16:53 Sunny 58 14.4 31 -0.6 36 36 VRB 3 6 30.01 1016 10 16 0.00 0.00
5:53 pm 17:53 Mostly Cloudy 55 12.8 32 0 42 42 Calm 30.01 1016 10 16 0.00 0.00
6:53 pm 18:53 Clear 47 8.3 35 1.7 63 63 Calm 30.03 1017 10 16 0.00 0.00
7:53 pm 19:53 Clear 45 7.2 35 1.7 68 68 Calm 30.04 1017 10 16 0.00 0.00
8:53 pm 20:53 Clear 42 5.6 34 1.1 73 73 Calm 30.04 1017 10 16 0.00 0.00
9:53 pm 21:53 Clear 41 5 33 0.6 73 73 Calm 30.04 1017 10 16 0.00 0.00
10:53 pm 22:53 Clear 40 4.4 31 -0.6 70 70 Calm 30.04 1017 10 16 0.00 0.00
11:53 pm 23:53 Clear 39 3.9 30 -1.1 70 70 Calm 30.04 1017 10 16 0.00 0.00

Powered by AerisWeather